Regional Weather Roundup
Issued by NWS

Home | Current Version | Previous Version | Text Only | Print | Product List | Glossary Off
Versions: 1 2 3 4 5 6 7 8 9 10 11 12 13 14 15 16 17 18 19 20 21 22 23 24 25 26 27 28 29 30 31 32 33 34 35 36 37 38 39 40 41 42 43 44 45 46 47 48 49 50

829
ASUS43 KFSD 061310
RWRSD

WEATHER ROUNDUP FOR SOUTH DAKOTA
NATIONAL WEATHER SERVICE SIOUX FALLS SD
700 AM CST TUE DEC 06 2016

NOTE: "FAIR" INDICATES FEW OR NO CLOUDS BELOW 12,000 FEET WITH NO
SIGNIFICANT WEATHER AND/OR OBSTRUCTIONS TO VISIBILITY.


SDZ001>005-009-010-012>017-061400-
NORTHWEST AND NORTH CENTRAL SOUTH DAKOTA

CITY           SKY/WX    TMP DP  RH WIND       PRES   REMARKS
BUFFALO          N/A      3  -3  76 NW24G33   29.87R WCI -20
FAITH            N/A      6   2  83 NW33      29.90R WCI -19
MOBRIDGE       LGT SNOW  13   7  77 NW30G46   29.81R VSB 3/4 WCI  -8
$$

SDZ012>016-024>037-041>051-057-063-072>074-061400-
SOUTHWEST AND SOUTH CENTRAL SOUTH DAKOTA

CITY           SKY/WX    TMP DP  RH WIND       PRES   REMARKS
RAPID CTY ARPT CLEAR     10   1  67 N14       29.93S WCI  -6
PIERRE         CLOUDY    13   5  70 NW35G47   29.92S HAZE    WCI -10
CUSTER         CLEAR      7  -3  64 W12G25    29.79R WCI  -8
ELLSWORTH AFB  CLEAR     11   1  64 NW16      29.92R WCI  -6
PHILIP         CLOUDY    12   3  67 W25G37    29.99S WCI  -8
PINE RIDGE     CLEAR      8   3  80 W8        29.96R WCI  -4
SPEARFISH      FAIR       9   0  66 NW16G25   29.93R WCI  -9
WINNER         FAIR      15   5  64 NW20G31   29.95R WCI  -2
$$

SDZ004>011-016>023-039-040-061400-
NORTHEAST SOUTH DAKOTA

CITY           SKY/WX    TMP DP  RH WIND       PRES   REMARKS
ABERDEEN       LGT SNOW  16   9  74 W31G40    29.69R WCI  -4
WATERTOWN      LGT SNOW  13   8  81 W35G41    29.67R WCI -10
BROOKINGS      FLURRIES  14   8  77 W26G37    29.75R WCI  -6
SISSETON         N/A     18  12  77 W29G39    29.55F WCI  -1
$$

SDZ017-020-022-023-036>040-048>070-061400-
SOUTHEAST SOUTH DAKOTA

CITY           SKY/WX    TMP DP  RH WIND       PRES   REMARKS
SIOUX FALLS    LGT SNOW  18  12  77 W22G33    29.84S WCI   1
HURON          MIX PCPN  15   7  70 W25G39    29.85R WCI  -4
CHAMBERLAIN    CLEAR     15   7  70 W23G36    29.94R WCI  -4
MITCHELL       CLOUDY    17   9  70 W24G33    29.90S WCI  -1
YANKTON        CLEAR     18   9  68 W24       29.92R WCI   0
$$

ABBREVIATIONS USED IN REMARKS
   TC - TEMPERATURE IN CELSIUS
  WCI - WIND CHILL INDEX
   HX - HEAT INDEX
  VSB - VISIBILITY





USA.gov is the U.S. government's official web portal to all federal, state and local government web resources and services.